N934HH KCLE-KCMH

Flight info

Callsign N934HH
Flight time 0h 26m
Altitude 20000
Route LBRON WAAHU BUGZZ CBUSS2
Aircraft CJ4/M-V/N

Departure

Time 2026-05-09 00:02
Airport Cleveland Hopkins International Airport (KCLE)

Arrival

Time 2026-05-09 00:28
Airport John Glenn Columbus International Airport (KCMH)
Time Latitude Longitude Altitude Speed Heading
2026-05-08 23:44 41.40153 -81.85457 785 ft 0 kts 276°
2026-05-08 23:54 41.40148 -81.85468 785 ft 1 kts 205°
2026-05-08 23:54 41.40138 -81.85439 785 ft 11 kts 53°
2026-05-08 23:55 41.40362 -81.85442 784 ft 26 kts 341°
2026-05-08 23:55 41.40523 -81.85515 778 ft 25 kts 341°
2026-05-08 23:55 41.40619 -81.85425 779 ft 17 kts 49°
2026-05-08 23:55 41.40737 -81.85234 778 ft 36 kts 51°
2026-05-08 23:56 41.40905 -81.84972 783 ft 36 kts 50°
2026-05-08 23:56 41.41056 -81.84733 789 ft 32 kts 50°
2026-05-08 23:56 41.41194 -81.84511 790 ft 31 kts 49°
2026-05-08 23:56 41.41314 -81.84323 790 ft 22 kts 50°
2026-05-08 23:57 41.41414 -81.84166 790 ft 20 kts 48°
2026-05-08 23:57 41.41438 -81.84143 791 ft 0 kts
2026-05-09 00:01 41.41482 -81.84165 791 ft 18 kts 321°
2026-05-09 00:01 41.41446 -81.84350 789 ft 53 kts 229°
2026-05-09 00:01 41.40961 -81.85099 998 ft 144 kts 229°
2026-05-09 00:02 41.40152 -81.86201 2115 ft 186 kts 214°
2026-05-09 00:02 41.38833 -81.86860 3069 ft 221 kts 196°
2026-05-09 00:02 41.37299 -81.87202 3650 ft 224 kts 194°
2026-05-09 00:02 41.35739 -81.87420 4239 ft 224 kts 192°
2026-05-09 00:03 41.34186 -81.87601 4829 ft 224 kts 192°
2026-05-09 00:03 41.32687 -81.88061 5401 ft 232 kts 214°
2026-05-09 00:03 41.31290 -81.89251 6366 ft 245 kts 214°
2026-05-09 00:03 41.29698 -81.90184 7452 ft 248 kts 208°
2026-05-09 00:04 41.28167 -81.91066 8561 ft 232 kts 210°
2026-05-09 00:04 41.26646 -81.91923 9588 ft 244 kts 210°
2026-05-09 00:04 41.25041 -81.92860 10553 ft 259 kts 209°
2026-05-09 00:04 41.23341 -81.93806 11521 ft 271 kts 208°
2026-05-09 00:05 41.21588 -81.94844 12523 ft 281 kts 210°
2026-05-09 00:05 41.19728 -81.95904 13337 ft 299 kts 208°
2026-05-09 00:05 41.17762 -81.97022 14052 ft 314 kts 209°
2026-05-09 00:05 41.15716 -81.98183 14853 ft 322 kts 209°
2026-05-09 00:06 41.14351 -81.98958 15489 ft 323 kts 210°
2026-05-09 00:06 41.12285 -82.00145 16485 ft 324 kts 210°
2026-05-09 00:06 41.10211 -82.01324 17524 ft 325 kts 211°
2026-05-09 00:06 41.07421 -82.02921 18407 ft 331 kts 211°
2026-05-09 00:07 41.05994 -82.03728 18701 ft 327 kts 212°
2026-05-09 00:07 41.03940 -82.04893 19115 ft 325 kts 212°
2026-05-09 00:07 41.01829 -82.06106 19358 ft 335 kts 213°
2026-05-09 00:07 40.99685 -82.07323 19603 ft 333 kts 212°
2026-05-09 00:08 40.97565 -82.08519 19814 ft 331 kts 213°
2026-05-09 00:08 40.95449 -82.09848 19880 ft 340 kts 220°
2026-05-09 00:08 40.93640 -82.11727 19907 ft 327 kts 226°
2026-05-09 00:08 40.91806 -82.13501 19915 ft 326 kts 224°
2026-05-09 00:09 40.89977 -82.15336 19916 ft 334 kts 226°
2026-05-09 00:09 40.88112 -82.17230 19919 ft 341 kts 225°
2026-05-09 00:09 40.86231 -82.19129 19643 ft 334 kts 225°
2026-05-09 00:09 40.84416 -82.20929 19254 ft 319 kts 225°
2026-05-09 00:10 40.82688 -82.22674 18866 ft 308 kts 225°
2026-05-09 00:10 40.80922 -82.24470 18484 ft 334 kts 225°
2026-05-09 00:10 40.79029 -82.26391 18092 ft 346 kts 224°
2026-05-09 00:10 40.77106 -82.28282 17607 ft 342 kts 224°
2026-05-09 00:11 40.75220 -82.30173 17128 ft 340 kts 224°
2026-05-09 00:11 40.73342 -82.32053 16661 ft 338 kts 224°
2026-05-09 00:11 40.71501 -82.33900 16198 ft 325 kts 224°
2026-05-09 00:11 40.69749 -82.35646 15656 ft 315 kts 223°
2026-05-09 00:12 40.68009 -82.37391 15143 ft 304 kts 224°
2026-05-09 00:12 40.66373 -82.39030 14747 ft 301 kts 224°
2026-05-09 00:12 40.64648 -82.40758 14330 ft 318 kts 223°
2026-05-09 00:12 40.62755 -82.42323 13909 ft 328 kts 208°
2026-05-09 00:13 40.60578 -82.43301 13458 ft 330 kts 206°
2026-05-09 00:13 40.58456 -82.44448 13015 ft 329 kts 208°
2026-05-09 00:13 40.56307 -82.45509 12580 ft 330 kts 204°
2026-05-09 00:13 40.54071 -82.46287 12142 ft 332 kts 200°
2026-05-09 00:14 40.51846 -82.47078 11704 ft 331 kts 201°
2026-05-09 00:14 40.49703 -82.47847 11267 ft 302 kts 201°
2026-05-09 00:14 40.47801 -82.48538 10920 ft 273 kts 202°
2026-05-09 00:14 40.45988 -82.49197 10784 ft 267 kts 201°
2026-05-09 00:15 40.44217 -82.49845 10657 ft 263 kts 202°
2026-05-09 00:15 40.42454 -82.50479 10429 ft 263 kts 201°
2026-05-09 00:15 40.40681 -82.51120 10171 ft 264 kts 201°
2026-05-09 00:15 40.38905 -82.51757 9907 ft 265 kts 200°
2026-05-09 00:16 40.37132 -82.52397 9627 ft 264 kts 201°
2026-05-09 00:16 40.35356 -82.53036 9349 ft 265 kts 200°
2026-05-09 00:16 40.33581 -82.53661 9078 ft 263 kts 201°
2026-05-09 00:16 40.31819 -82.54316 8812 ft 263 kts 201°
2026-05-09 00:17 40.30051 -82.54933 8542 ft 263 kts 200°
2026-05-09 00:17 40.28292 -82.55569 8282 ft 262 kts 201°
2026-05-09 00:17 40.26532 -82.56218 8016 ft 263 kts 200°
2026-05-09 00:17 40.24759 -82.56816 7749 ft 263 kts 200°
2026-05-09 00:18 40.23010 -82.57444 7469 ft 258 kts 200°
2026-05-09 00:18 40.21304 -82.58035 7217 ft 244 kts 200°
2026-05-09 00:18 40.19747 -82.58593 6977 ft 221 kts 200°
2026-05-09 00:18 40.18316 -82.59098 6754 ft 210 kts 201°
2026-05-09 00:19 40.16908 -82.59603 6545 ft 210 kts 199°
2026-05-09 00:19 40.15417 -82.59491 6336 ft 222 kts 173°
2026-05-09 00:19 40.13923 -82.59002 6126 ft 221 kts 174°
2026-05-09 00:19 40.12436 -82.58479 5896 ft 222 kts 173°
2026-05-09 00:20 40.10966 -82.57957 5666 ft 222 kts 172°
2026-05-09 00:20 40.09475 -82.57431 5463 ft 222 kts 173°
2026-05-09 00:20 40.07974 -82.56967 5255 ft 217 kts 182°
2026-05-09 00:20 40.06554 -82.57286 5027 ft 203 kts 201°
2026-05-09 00:21 40.05222 -82.57756 4951 ft 192 kts 202°
2026-05-09 00:21 40.03969 -82.58232 4911 ft 184 kts 202°
2026-05-09 00:21 40.02752 -82.58697 4918 ft 174 kts 202°
2026-05-09 00:21 40.01629 -82.59107 4901 ft 162 kts 201°
2026-05-09 00:22 40.00616 -82.59621 4894 ft 151 kts 224°
2026-05-09 00:22 40.00207 -82.60828 4899 ft 147 kts 250°
2026-05-09 00:22 39.99980 -82.62156 4767 ft 158 kts 261°
2026-05-09 00:22 39.99852 -82.63615 4476 ft 164 kts 260°
2026-05-09 00:23 39.99726 -82.65101 4175 ft 165 kts 261°
2026-05-09 00:23 39.99595 -82.66601 3879 ft 167 kts 262°
2026-05-09 00:23 39.99466 -82.68118 3580 ft 169 kts 261°
2026-05-09 00:23 39.99313 -82.69619 3292 ft 166 kts 258°
2026-05-09 00:24 39.99251 -82.71111 3029 ft 164 kts 272°
2026-05-09 00:24 39.99301 -82.72579 2885 ft 162 kts 269°
2026-05-09 00:24 39.99378 -82.74052 2657 ft 164 kts 272°
2026-05-09 00:24 39.99458 -82.75549 2432 ft 165 kts 272°
2026-05-09 00:25 39.99542 -82.76950 2271 ft 150 kts 272°
2026-05-09 00:25 39.99613 -82.78206 2240 ft 125 kts 274°
2026-05-09 00:25 39.99673 -82.79287 2122 ft 116 kts 272°
2026-05-09 00:25 39.99736 -82.80321 1970 ft 112 kts 272°
2026-05-09 00:26 39.99786 -82.81347 1824 ft 115 kts 272°
2026-05-09 00:26 39.99849 -82.82406 1667 ft 117 kts 271°
2026-05-09 00:26 39.99914 -82.83453 1512 ft 116 kts 274°
2026-05-09 00:26 39.99959 -82.84509 1358 ft 117 kts 272°
2026-05-09 00:27 40.00025 -82.85582 1192 ft 118 kts 274°
2026-05-09 00:27 40.00098 -82.86672 1033 ft 123 kts 274°
2026-05-09 00:27 40.00155 -82.87793 852 ft 123 kts 274°
2026-05-09 00:27 40.00208 -82.88774 818 ft 80 kts 276°
2026-05-09 00:28 40.00235 -82.89255 811 ft 49 kts 274°
2026-05-09 00:28 40.00259 -82.89681 810 ft 35 kts 270°
2026-05-09 00:28 40.00185 -82.89755 813 ft 0 kts 136°
2026-05-09 00:29 40.00168 -82.89759 813 ft 8 kts 233°
2026-05-09 00:29 40.00176 -82.89897 816 ft 24 kts 274°
2026-05-09 00:30 40.00184 -82.90135 817 ft 29 kts 272°
2026-05-09 00:30 40.00201 -82.90401 821 ft 29 kts 274°
2026-05-09 00:30 40.00190 -82.90498 820 ft 7 kts 211°
2026-05-09 00:30 40.00109 -82.90512 819 ft 25 kts 184°
2026-05-09 00:31 39.99982 -82.90521 818 ft 1 kts 190°
2026-05-09 00:31 39.99753 -82.90545 812 ft 44 kts 184°
2026-05-09 00:31 39.99640 -82.90650 813 ft 23 kts 276°
2026-05-09 00:31 39.99627 -82.90869 811 ft 18 kts 205°
2026-05-09 00:32 39.99453 -82.90898 818 ft 0 kts 183°
2026-05-09 00:32 39.99444 -82.90899 818 ft 0 kts 183°
2026-05-09 00:33 39.99266 -82.90917 814 ft 37 kts 182°
2026-05-09 00:34 39.99187 -82.90766 816 ft 22 kts 94°
2026-05-09 00:34 39.99180 -82.90506 818 ft 33 kts 80°
2026-05-09 00:34 39.99217 -82.90193 818 ft 38 kts 96°
2026-05-09 00:34 39.99193 -82.89815 814 ft 46 kts 94°
2026-05-09 00:35 39.99166 -82.89375 813 ft 50 kts 92°
2026-05-09 00:35 39.99089 -82.89229 811 ft 18 kts 187°
2026-05-09 00:35 39.99054 -82.89306 811 ft 8 kts 298°
2026-05-09 00:35 39.99057 -82.89310 812 ft 0 kts 324°